Chicago O'Hare, IL

4:17 PM CDT on August 30, 2016 (GMT -0500)
Chicago-O'Hare International

Weather History for KORD - November, 2013

Change the Weather History Date:

Wednesday, November 20, 2013

  Actual Average Record
Temperature  
Mean Temperature 37 °F 38 °F  
Max Temperature 45 °F 46 °F 68 °F (1930)
Min Temperature 28 °F 31 °F 8 °F (1873)
Degree Days  
Heating Degree Days 28 27  
Month to date heating degree days 457 444  
Since 1 July heating degree days 921 959  
Cooling Degree Days 0 0  
Month to date cooling degree days 0 0  
Year to date cooling degree days 933 843  
Moisture  
Dew Point 30 °F    
Average Humidity 71    
Maximum Humidity 92    
Minimum Humidity 49    
Precipitation  
Precipitation 0.15 in 0.11 in 1.23 in (1970)
Month to date precipitation 1.97 2.10  
Year to date precipitation 40.03 33.59  
Snow  
Snow 0.00 in 0.10 in 2.80 in (1996)
Month to date snowfall 0.4 0.4  
Since 1 July snowfall 0.4 0.6  
Since 1 September snowfall 0.4 0.6  
Snow Depth 0.00 in    
Sea Level Pressure  
Sea Level Pressure 30.21 in    
Wind  
Wind Speed 10 mph (SSE)    
Max Wind Speed 20 mph    
Max Gust Speed 26 mph    
Visibility 10 miles    
Events Rain    
T = Trace of Precipitation, MM = Missing Value Source: NWS Daily Summary

Daily Weather History Graph

Daily Weather History Graph

Search for Another Location

Airport or City:

Trip Planner

Search our weather history database for the weather conditions in past years. The results will help you decide how hot, cold, wet, or windy it might be!

Date:

Astronomy

Nov. 20, 2013 Rise Set
Actual Time 6:47 AM CST 4:26 PM CST
Civil Twilight 6:17 AM CST 4:56 PM CST
Nautical Twilight 5:43 AM CST 5:31 PM CST
Astronomical Twilight 5:10 AM CST 6:04 PM CST
Moon 7:09 PM CST (11/20) 9:13 AM CST (11/20)
Length of Visible Light 10h 39m
Length of Day
9h 38m
Waning Gibbous, 91% of the Moon is Illuminated
Nov 20
Waning Gibbous
Nov 25
Last Quarter
Dec 2
New
Dec 9
First Quarter
Dec 17
Full

Hourly Weather History & Observations

Time (CST) Temp. Windchill Dew Point Humidity Pressure Visibility Wind Dir Wind Speed Gust Speed Precip Events Conditions
12:51 AM 33.1 °F 26.1 °F 27.0 °F 78% 30.30 in 10.0 mi SSE 8.1 mph - N/A   Partly Cloudy
1:51 AM 30.9 °F 23.5 °F 27.0 °F 85% 30.30 in 10.0 mi SE 8.1 mph - N/A   Scattered Clouds
2:51 AM 30.9 °F 23.5 °F 26.1 °F 82% 30.30 in 10.0 mi SSE 8.1 mph - N/A   Scattered Clouds
3:51 AM 28.9 °F 22.8 °F 25.0 °F 85% 30.30 in 10.0 mi SSE 5.8 mph - N/A   Partly Cloudy
4:51 AM 30.0 °F 25.2 °F 25.0 °F 82% 30.30 in 10.0 mi South 4.6 mph - N/A   Partly Cloudy
5:51 AM 28.9 °F 21.9 °F 25.0 °F 85% 30.29 in 10.0 mi SSE 6.9 mph - N/A   Partly Cloudy
6:51 AM 30.9 °F 22.8 °F 25.0 °F 79% 30.28 in 10.0 mi SE 9.2 mph - N/A   Scattered Clouds
7:51 AM 33.1 °F 23.4 °F 26.1 °F 75% 30.28 in 10.0 mi SE 13.8 mph - N/A   Mostly Cloudy
8:51 AM 36.0 °F 25.0 °F 27.0 °F 70% 30.27 in 10.0 mi SSE 20.7 mph - N/A   Mostly Cloudy
9:51 AM 37.9 °F 28.5 °F 26.1 °F 62% 30.28 in 10.0 mi South 17.3 mph - N/A   Mostly Cloudy
10:51 AM 39.9 °F 31.1 °F 27.0 °F 60% 30.25 in 10.0 mi SSE 17.3 mph 25.3 mph N/A   Mostly Cloudy
11:51 AM 43.0 °F 35.4 °F 27.0 °F 53% 30.21 in 10.0 mi SSE 16.1 mph 21.9 mph N/A   Mostly Cloudy
12:51 PM 44.1 °F 37.7 °F 27.0 °F 51% 30.18 in 10.0 mi South 12.7 mph - N/A   Mostly Cloudy
1:51 PM 43.0 °F 37.7 °F 28.0 °F 56% 30.15 in 10.0 mi South 9.2 mph - N/A   Mostly Cloudy
2:51 PM 43.0 °F 37.7 °F 28.0 °F 56% 30.14 in 10.0 mi SSE 9.2 mph - N/A   Overcast
3:51 PM 43.0 °F 36.0 °F 28.9 °F 58% 30.14 in 10.0 mi SSE 13.8 mph - N/A   Overcast
4:51 PM 42.1 °F 36.1 °F 30.0 °F 62% 30.14 in 10.0 mi SSE 10.4 mph - N/A   Overcast
5:51 PM 42.1 °F 35.2 °F 32.0 °F 67% 30.14 in 10.0 mi SSE 12.7 mph - 0.00 in Rain Light Rain
6:51 PM 41.0 °F 35.8 °F 34.0 °F 76% 30.12 in 10.0 mi SSE 8.1 mph - 0.00 in   Overcast
7:51 PM 39.9 °F 36.7 °F 35.1 °F 83% 30.16 in 7.0 mi South 4.6 mph - 0.04 in Rain Light Rain
8:51 PM 39.9 °F 33.4 °F 37.0 °F 89% 30.16 in 7.0 mi SSE 10.4 mph - 0.06 in Rain Light Rain
9:51 PM 39.9 °F 34.5 °F 37.0 °F 89% 30.16 in 9.0 mi SSE 8.1 mph - 0.05 in   Overcast
10:51 PM 39.9 °F 35.8 °F 37.0 °F 89% 30.14 in 8.0 mi SSE 5.8 mph - 0.00 in   Overcast
11:51 PM 41.0 °F 35.8 °F 37.9 °F 89% 30.14 in 8.0 mi SE 8.1 mph - N/A   Overcast